User: anonymous   Login
Location: Unspecified
(0.0000°N, 0.0000°E)
Time: 13:02:06
(UTC+02:00)
Language:

ARIANE 5 R/B - Orbit

View from above orbital plane
View from above orbital plane
View from above satellite
View from above satellite

Ground track
Ground track

The orbit data is extracted from the following two-line orbital elements,

1 27510U 02040C   18174.64314711 -.00000049 +00000-0 +87762-3 0  9996
2 27510 005.4029 064.4006 7158289 259.8544 257.0777 02.27200328131336
Epoch (UTC): 23 June 2018 15:26:07
Eccentricity: 0.7158289
inclination: 5.4029°
perigee height: 567 km
apogee height: 35559 km
right ascension of ascending node: 64.4006°
argument of perigee: 259.8544°
revolutions per day: 2.27200328
mean anomaly at epoch: 257.0777°
orbit number at epoch: 13133

The dashed part of the orbit path shows where the satellite is in the earth's shadow,  

DLR